This demonstration page uses our WeatherBlox Daily Observations layout. Learn more.

36.17497, -115.13722

Hourly Observations for April 6, 2018

Temp ( °F °C ) Dew Point ( °F °C ) Humidity (%) Winds ( mph kmh ) Pressure ( in mb ) Visibility ( mi km ) Precip ( " mm )
12:53 am 00:53 Clear 75 23.9 27 -2.8 17 17 SSE 5 7 29.77 1008 10 16.09344 0 0
1:53 am 01:53 Clear 72 22.2 28 -2.2 19 19 N 7 11 29.77 1008 10 16.09344 0 0
2:53 am 02:53 Cloudy 71 21.7 28 -2.2 20 20 Calm 29.77 1008 10 16.09344 0 0
3:53 am 03:53 Clear 70 21.1 30 -1.1 23 23 Calm 29.74 1007 10 16.09344 0 0
4:53 am 04:53 Clear 69 20.6 31 -0.6 24 24 WSW 5 7 29.74 1007 10 16.09344 0 0
5:53 am 05:53 Clear 67 19.4 30 -1.1 25 25 WNW 5 7 29.74 1007 10 16.09344 0 0
6:53 am 06:53 Sunny 65 18.3 30 -1.1 27 27 N 8 13 29.77 1008 10 16.09344 0 0
7:53 am 07:53 Sunny 70 21.1 29 -1.7 22 22 NNE 7 11 29.77 1008 10 16.09344 0 0
8:53 am 08:53 Sunny 76 24.4 28 -2.2 17 17 NNE 8 13 29.8 1009 10 16.09344 0 0
9:53 am 09:53 Sunny 76 24.4 28 -2.2 17 17 ENE 8 13 29.8 1009 10 16.09344 0 0
10:53 am 10:53 Sunny 77 25 28 -2.2 16 16 ENE 5 7 29.8 1009 10 16.09344 0 0
11:53 am 11:53 Sunny 81 27.2 27 -2.8 14 14 Calm 29.77 1008 10 16.09344 0 0
12:53 pm 12:53 Sunny 82 27.8 25 -3.9 12 12 Calm 29.74 1007 10 16.09344 0 0
1:53 pm 13:53 Sunny 84 28.9 27 -2.8 12 12 SSE 6 9 29.71 1006 10 16.09344 0 0
2:53 pm 14:53 Sunny 86 30 29 -1.7 13 13 S 8 13 29.68 1005 10 16.09344 0 0
3:53 pm 15:53 Sunny 88 31.1 31 -0.6 13 13 S 8 13 29.65 1004 10 16.09344 0 0
4:53 pm 16:53 Sunny 87 30.6 32 0 14 14 SW 14 22 29.65 1004 10 16.09344 0 0
5:53 pm 17:53 Sunny 85 29.4 33 0.6 15 15 WSW 15 24 29.65 1004 10 16.09344 0 0
6:53 pm 18:53 Sunny 82 27.8 34 1.1 18 18 SSW 14 22 29.65 1004 10 16.09344 0 0
7:53 pm 19:53 Clear 81 27.2 37 2.8 21 21 S 10 17 29.65 1004 10 16.09344 0 0
8:53 pm 20:53 Clear 79 26.1 41 5 26 26 SSW 10 17 29.68 1005 10 16.09344 0 0
9:53 pm 21:53 Clear 78 25.6 41 5 27 27 SSW 8 13 29.71 1006 10 16.09344 0 0
10:53 pm 22:53 Clear 76 24.4 42 5.6 30 30 ENE 9 15 29.74 1007 10 16.09344 0 0
11:53 pm 23:53 Mostly Clear 74 23.3 44 6.7 34 34 NE 6 9 29.77 1008 10 16.09344 0 0

Powered by AerisWeather